BIROS

Last updated on Thu Jul 03 2025 00:02:30 GMT+0000 (Coordinated Universal Time)

1 41604U 16040F 25183.58974763 .00024153 00000+0 26333-3 0 9998 2 41604 97.0857 212.5420 0007093 94.0946 266.1125 15.63356693503097
UTC large
Height (km)
Speed (km/s)
/
Latitude / Longitude
Inclination (degrees)
Orbital Period (minutes)
Azimuth
Elevation
Range (km)
Doppler Factor

Next 0 passes for location: London (51.5072 / 0.1276)

Sorry there are no passes over London.